Latest Weather Observations for Bridgetown

IDW60801

Issued at 1:35 pm WST Friday 1 August 2014 (issued every 30 minutes, with the page automatically refreshed every 10 minutes)

About weather observations | Map of weather stations | Latest weather observations for WA | Other Formats
Station Details ID: 009617 Name: BRIDGETOWN Lat: -33.95 Lon: 116.13 Height: 178.66 m
Data from the previous 72 hours. | See also: Recent months at Bridgetown
Date/Time
WST
Temp
°C
App
Temp
°C
Dew
Point
Rel
Hum
%
Delta-T
°C
Wind Press
QNH
hPa
Press
MSL
hPa
Rain
since 9 am
mm
Dir
 
Spd
km/h
Gust
km/h
Spd
kts
Gust
kts
01/01:30pm 12.4 9.5 4.6 59 3.6 NNE 9 15 5 8 1025.0 - 0.0
01/01:00pm 11.8 9.0 5.2 64 3.0 NNE 9 17 5 9 1025.5 1025.7 0.0
01/12:30pm 11.3 8.2 5.4 67 2.7 NNE 11 17 6 9 1026.2 - 0.0
01/12:00pm 10.8 7.2 5.1 68 2.6 NE 13 22 7 12 1026.9 1027.0 0.0
01/11:30am 10.3 6.3 5.1 70 2.4 E 15 24 8 13 1027.4 - 0.0
01/11:00am 9.5 5.5 4.7 72 2.1 ENE 15 26 8 14 1027.9 1028.1 0.0
01/10:30am 8.9 5.1 4.1 72 2.1 NE 13 22 7 12 1028.3 - 0.0
01/10:00am 8.4 4.7 4.4 76 1.8 ENE 13 30 7 16 1028.5 1028.7 0.0
01/09:30am 6.3 4.3 6.3 100 0.0 ESE 6 17 3 9 1028.6 - 0.0
01/09:00am 2.9 1.4 2.9 100 0.0 CALM 0 0 0 0 1028.7 1028.9 0.2
01/08:30am 0.0 -2.0 0.0 100 0.0 CALM 0 0 0 0 1028.8 - 0.2
01/08:00am -0.5 -2.6 -0.5 100 0.0 CALM 0 0 0 0 1028.9 1029.1 0.0
01/07:30am -0.8 -2.9 -0.8 100 0.0 CALM 0 0 0 0 1028.7 - 0.0
01/07:00am -0.7 -2.8 -0.7 100 0.0 CALM 0 0 0 0 1028.6 1028.8 0.0
01/06:30am -0.7 -2.8 -0.7 100 0.0 CALM 0 0 0 0 1028.4 - 0.0
01/06:00am -0.4 -2.4 -0.4 100 0.0 W 0 0 0 0 1028.2 1028.4 0.0
01/05:30am 0.2 -1.8 0.2 100 0.0 CALM 0 0 0 0 1028.1 - 0.0
01/05:00am 0.2 -1.8 0.2 100 0.0 CALM 0 0 0 0 1028.2 1028.4 0.0
01/04:30am 0.8 -1.1 0.8 100 0.0 CALM 0 0 0 0 1028.0 - 0.0
01/04:00am 0.3 -1.6 0.3 100 0.0 CALM 0 0 0 0 1028.1 1028.3 0.0
01/03:30am 0.4 -1.5 0.4 100 0.0 CALM 0 0 0 0 1028.2 - 0.0
01/03:00am 0.3 -1.6 0.3 100 0.0 CALM 0 0 0 0 1028.2 1028.4 0.0
01/02:30am 0.1 -1.9 0.1 100 0.0 CALM 0 0 0 0 1028.1 - 0.0
01/02:00am 0.2 -1.8 0.2 100 0.0 CALM 0 0 0 0 1028.1 1028.3 0.0
01/01:30am 0.1 -1.9 0.1 100 0.0 CALM 0 0 0 0 1028.3 - 0.0
01/01:00am 0.6 -1.3 0.6 100 0.0 CALM 0 0 0 0 1028.2 1028.4 0.0
01/12:30am 0.7 -1.2 0.6 99 0.0 CALM 0 0 0 0 1028.4 - 0.0
01/12:00am 1.0 -0.8 0.9 99 0.0 N 0 0 0 0 1028.7 1028.9 0.0
 
Date/Time
WST
Temp
°C
App
Temp
°C
Dew
Point
Rel
Hum
%
Delta-T
°C
Wind Press
QNH
hPa
Press
MSL
hPa
Rain
since 9 am
mm
Dir
 
Spd
km/h
Gust
km/h
Spd
kts
Gust
kts
31/11:30pm 0.9 -1.0 0.8 99 0.0 CALM 0 0 0 0 1028.9 - 0.0
31/11:00pm 1.3 -0.5 1.2 99 0.0 CALM 0 0 0 0 1029.0 1029.2 0.0
31/10:30pm 1.4 -0.4 1.3 99 0.0 CALM 0 0 0 0 1028.9 - 0.0
31/10:00pm 2.4 0.8 2.3 99 0.0 CALM 0 0 0 0 1028.7 1028.9 0.0
31/09:30pm 2.4 0.8 2.3 99 0.0 CALM 0 0 0 0 1028.8 - 0.0
31/09:00pm 3.0 1.5 2.9 99 0.0 CALM 0 0 0 0 1028.7 1028.9 0.0
31/08:30pm 3.4 2.0 3.3 99 0.0 CALM 0 0 0 0 1028.7 - 0.0
31/08:00pm 3.9 2.5 3.6 98 0.1 CALM 0 0 0 0 1028.7 1028.9 0.0
31/07:30pm 4.5 3.2 4.2 98 0.1 CALM 0 0 0 0 1028.5 - 0.0
31/07:00pm 5.4 4.3 5.0 97 0.2 CALM 0 0 0 0 1028.2 1028.4 0.0
31/06:30pm 6.7 5.6 4.9 88 0.8 CALM 0 0 0 0 1028.1 - 0.0
31/06:00pm 8.2 6.9 4.2 76 1.7 CALM 0 2 0 1 1027.8 1028.0 0.0
31/05:30pm 9.8 7.8 4.2 68 2.5 S 4 7 2 4 1027.5 - 0.0
31/05:00pm 10.5 7.9 4.2 65 2.8 S 7 13 4 7 1027.3 1027.5 0.0
31/04:30pm 11.7 8.7 4.0 59 3.5 S 9 15 5 8 1027.2 - 0.0
31/04:00pm 12.1 8.7 4.1 58 3.6 S 11 15 6 8 1026.9 1027.1 0.0
31/03:30pm 12.3 9.3 4.3 58 3.7 S 9 17 5 9 1027.0 - 0.0
31/03:00pm 12.9 10.7 5.1 59 3.6 S 6 13 3 7 1027.1 1027.3 0.0
31/02:30pm 12.1 9.5 4.3 59 3.6 S 7 15 4 8 1027.1 - 0.0
31/02:00pm 11.8 8.7 3.6 57 3.7 S 9 17 5 9 1027.2 1027.4 0.0
31/01:30pm 12.0 9.3 3.5 56 3.8 S 7 13 4 7 1027.1 - 0.0
31/01:00pm 12.0 9.3 3.8 57 3.7 SSE 7 17 4 9 1027.2 1027.4 0.0
31/12:30pm 11.8 8.3 3.6 57 3.7 SSW 11 22 6 12 1027.3 - 0.0
31/12:00pm 11.2 7.7 3.7 60 3.3 S 11 19 6 10 1027.6 1027.8 0.0
31/11:30am 11.6 8.9 3.9 59 3.5 SSE 7 17 4 9 1028.0 - 0.0
31/11:00am 10.8 7.5 4.3 64 2.9 SSE 11 19 6 10 1028.2 1028.4 0.0
31/10:30am 10.8 7.0 4.0 63 3.1 S 13 24 7 13 1028.0 - 0.0
31/10:00am 10.4 7.7 3.7 63 3.0 SSE 7 11 4 6 1027.7 1027.9 0.0
31/09:30am 10.0 7.8 3.3 63 2.9 S 4 7 2 4 1027.6 - 0.0
31/09:00am 9.7 6.9 3.4 65 2.7 S 7 17 4 9 1027.2 1027.4 1.2
31/08:30am 9.3 6.6 3.7 68 2.5 S 7 11 4 6 1026.9 - 1.2
31/08:00am 9.2 6.1 3.8 69 2.4 S 9 17 5 9 1026.6 1026.8 1.2
31/07:30am 9.1 5.3 3.7 69 2.4 S 13 22 7 12 1026.0 - 1.2
31/07:00am 9.3 5.8 3.7 68 2.4 S 11 17 6 9 1025.3 1025.6 1.2
31/06:30am 9.3 5.5 3.7 68 2.5 S 13 24 7 13 1024.8 - 1.2
31/06:00am 9.4 6.1 4.4 71 2.2 S 11 22 6 12 1024.3 1024.5 1.2
31/05:30am 9.7 6.4 4.7 71 2.3 S 11 19 6 10 1023.9 - 1.2
31/05:00am 9.7 7.2 4.9 72 2.2 S 7 11 4 6 1023.7 1023.9 1.2
31/04:30am 9.8 7.3 5.0 72 2.2 S 7 11 4 6 1023.7 - 1.2
31/04:00am 9.9 7.5 4.5 69 2.4 S 6 11 3 6 1023.6 1023.8 1.2
31/03:30am 9.9 8.0 4.7 70 2.4 SSW 4 13 2 7 1023.5 - 1.2
31/03:00am 9.9 8.0 4.7 70 2.3 SSW 4 9 2 5 1023.5 1023.7 1.2
31/02:30am 10.0 7.7 4.6 69 2.4 SSW 6 13 3 7 1023.4 - 1.2
31/02:00am 10.3 7.1 5.3 71 2.3 SSW 11 22 6 12 1023.4 1023.6 1.2
31/01:30am 10.4 8.3 5.8 73 2.1 SSW 6 17 3 9 1023.0 - 1.2
31/01:00am 10.3 8.6 5.7 73 2.1 SW 4 7 2 4 1022.7 1022.9 1.2
31/12:30am 10.4 8.2 6.0 74 2.1 SSW 7 13 4 7 1022.7 - 1.2
31/12:00am 10.6 8.3 5.8 72 2.2 SSW 7 20 4 11 1022.5 1022.7 1.2
 
Date/Time
WST
Temp
°C
App
Temp
°C
Dew
Point
Rel
Hum
%
Delta-T
°C
Wind Press
QNH
hPa
Press
MSL
hPa
Rain
since 9 am
mm
Dir
 
Spd
km/h
Gust
km/h
Spd
kts
Gust
kts
30/11:30pm 10.9 8.9 7.0 77 1.9 SSW 7 19 4 10 1022.6 - 1.2
30/11:00pm 10.9 9.3 8.0 82 1.4 SW 6 13 3 7 1022.5 1022.7 1.2
30/10:30pm 11.4 10.3 10.6 95 0.4 S 7 11 4 6 1022.3 - 1.2
30/10:00pm 11.5 10.6 11.2 98 0.2 SW 7 17 4 9 1021.8 1022.0 1.2
30/09:30pm 11.6 10.0 11.4 99 0.1 WSW 11 22 6 12 1021.4 - 1.2
30/09:00pm 11.9 11.6 11.6 98 0.2 W 4 13 2 7 1021.0 1021.2 0.8
30/08:30pm 12.0 11.8 11.7 98 0.2 WNW 4 9 2 5 1020.8 - 0.6
30/08:00pm 12.0 11.6 11.1 94 0.5 NNW 4 9 2 5 1020.5 1020.8 0.6
30/07:30pm 12.4 11.2 10.3 87 1.1 WNW 7 15 4 8 1020.2 - 0.6
30/07:00pm 12.8 11.7 10.5 86 1.2 WNW 7 19 4 10 1020.3 1020.6 0.6
30/06:30pm 12.8 11.8 10.9 88 1.0 W 7 19 4 10 1020.3 - 0.6
30/06:00pm 12.8 11.6 11.5 92 0.7 W 9 22 5 12 1020.1 1020.3 0.6
30/05:30pm 13.2 12.3 12.7 97 0.3 W 9 20 5 11 1019.7 - 0.6
30/05:00pm 13.8 13.5 13.3 97 0.3 WSW 7 15 4 8 1019.6 1019.8 0.6
30/04:30pm 14.1 13.6 13.8 98 0.2 WSW 9 20 5 11 1019.2 - 0.4
30/04:00pm 14.6 14.4 13.5 93 0.6 W 7 13 4 7 1019.0 1019.2 0.4
30/03:30pm 16.4 14.4 11.6 73 2.6 WSW 13 22 7 12 1018.4 - 0.2
30/03:00pm 16.5 15.0 10.6 68 3.2 WNW 9 22 5 12 1018.2 1018.4 0.2
30/02:30pm 16.9 15.0 10.5 66 3.4 WNW 11 22 6 12 1017.9 - 0.2
30/02:00pm 16.5 14.4 11.0 70 3.0 W 13 24 7 13 1017.9 1018.1 0.2
30/01:30pm 17.4 14.8 10.8 65 3.6 NW 15 28 8 15 1018.0 - 0.2
30/01:00pm 16.8 14.0 10.0 64 3.6 WNW 15 22 8 12 1018.1 1018.3 0.2
30/12:30pm 16.6 12.9 10.2 66 3.4 NW 20 37 11 20 1018.4 - 0.2
30/12:00pm 14.6 14.6 14.3 98 0.2 NNW 7 15 4 8 1019.1 1019.3 0.2
30/11:30am 15.0 14.6 12.3 84 1.5 WNW 6 15 3 8 1019.4 - 0.0
30/11:00am 15.3 12.3 10.5 73 2.5 NW 17 28 9 15 1019.5 1019.7 0.0
30/10:30am 15.8 14.2 10.3 70 2.9 NW 9 19 5 10 1019.6 - 0.0
30/10:00am 15.0 13.5 10.6 75 2.3 WNW 9 19 5 10 1019.9 1020.1 0.0
30/09:30am 14.9 13.8 10.5 75 2.3 NW 7 15 4 8 1019.7 - 0.0
30/09:00am 14.8 13.0 11.0 78 2.0 NW 11 20 6 11 1019.5 1019.7 0.2
30/08:30am 14.0 12.2 11.0 82 1.6 NW 11 19 6 10 1019.2 - 0.2
30/08:00am 13.7 12.3 11.0 84 1.4 NNW 9 15 5 8 1019.2 1019.4 0.2
30/07:30am 13.7 11.9 11.0 84 1.4 NW 11 19 6 10 1019.2 - 0.2
30/07:00am 13.8 12.8 11.0 83 1.5 NW 7 15 4 8 1019.2 1019.4 0.2
30/06:30am 13.9 12.8 10.5 80 1.8 NNW 7 15 4 8 1019.0 - 0.2
30/06:00am 13.9 12.8 10.5 80 1.8 NW 7 13 4 7 1018.9 1019.1 0.2
30/05:30am 13.8 12.7 10.6 81 1.7 NNW 7 15 4 8 1018.9 - 0.2
30/05:00am 13.9 12.8 10.5 80 1.8 NW 7 13 4 7 1018.8 1019.0 0.2
30/04:30am 14.1 12.5 10.3 78 2.0 NW 9 24 5 13 1018.9 - 0.2
30/04:00am 14.0 13.1 10.6 80 1.8 NW 6 13 3 7 1019.0 1019.2 0.2
30/03:30am 14.2 12.6 10.2 77 2.1 NNW 9 20 5 11 1019.1 - 0.2
30/03:00am 13.7 13.3 12.3 91 0.8 NNW 6 15 3 8 1019.3 1019.5 0.2
30/02:30am 13.5 13.0 12.2 92 0.7 NNW 6 11 3 6 1019.6 - 0.2
30/02:00am 13.6 12.9 12.0 90 0.9 NNW 7 11 4 6 1019.7 1019.9 0.2
30/01:30am 13.5 13.4 12.1 91 0.8 NNW 4 19 2 10 1019.9 - 0.2
30/01:00am 13.5 12.9 12.2 92 0.7 N 7 11 4 6 1020.0 1020.2 0.2
30/12:30am 13.7 13.1 12.3 91 0.8 NNW 7 15 4 8 1020.3 - 0.2
30/12:00am 13.4 12.8 11.8 90 0.9 NNW 6 9 3 5 1020.5 1020.8 0.2
 
Date/Time
WST
Temp
°C
App
Temp
°C
Dew
Point
Rel
Hum
%
Delta-T
°C
Wind Press
QNH
hPa
Press
MSL
hPa
Rain
since 9 am
mm
Dir
 
Spd
km/h
Gust
km/h
Spd
kts
Gust
kts
29/11:30pm 12.7 13.1 12.4 98 0.2 N 2 6 1 3 1020.5 - 0.2
29/11:00pm 13.0 12.5 12.7 98 0.2 N 7 11 4 6 1020.7 1020.9 0.2
29/10:30pm 13.2 12.3 12.6 96 0.3 NNW 9 15 5 8 1020.8 - 0.2
29/10:00pm 12.9 12.4 12.6 98 0.2 NNW 7 11 4 6 1020.9 1021.1 0.2
29/09:30pm 13.1 12.3 12.9 99 0.1 NNW 9 17 5 9 1021.1 - 0.2
29/09:00pm 13.1 12.9 12.9 99 0.1 NNW 6 11 3 6 1021.3 1021.5 0.2
29/08:30pm 13.1 13.3 12.9 99 0.1 NNW 4 11 2 6 1021.4 - 0.2
29/08:00pm 13.2 13.0 13.0 99 0.1 NW 6 11 3 6 1021.3 1021.5 0.2
29/07:30pm 13.3 13.1 13.1 99 0.1 NNW 6 13 3 7 1021.3 - 0.2
29/07:00pm 13.3 12.6 13.1 99 0.1 NNW 9 17 5 9 1021.5 1021.7 0.2
29/06:30pm 13.8 13.6 13.5 98 0.2 NNW 7 15 4 8 1021.3 - 0.0
29/06:00pm 14.0 13.4 13.4 96 0.3 NNW 9 13 5 7 1021.0 1021.2 0.0
29/05:30pm 14.2 13.1 12.1 87 1.1 NNW 9 17 5 9 1020.8 - 0.0
29/05:00pm 14.6 13.3 11.4 81 1.7 NNW 9 17 5 9 1020.7 1020.9 0.0
29/04:30pm 14.8 13.4 10.8 77 2.1 NW 9 15 5 8 1020.7 - 0.0
29/04:00pm 15.2 14.2 10.2 72 2.6 NW 6 13 3 7 1020.4 1020.7 0.0
29/03:30pm 15.3 13.7 10.3 72 2.6 NW 9 17 5 9 1020.7 - 0.0
29/03:00pm 15.3 13.2 9.7 69 2.9 NW 11 19 6 10 1021.0 1021.2 0.0
29/02:30pm 15.4 13.1 9.1 66 3.3 NNW 11 22 6 12 1020.8 - 0.0
29/02:00pm 15.4 13.3 9.7 69 3.0 NNW 11 20 6 11 1020.9 1021.1 0.0

Other Formats:

Comma delimited format used in spreadsheet applications
http://www.bom.gov.au/fwo/IDW60801/IDW60801.95632.axf

JavaScript Object Notation format (JSON) in row-major order
http://www.bom.gov.au/fwo/IDW60801/IDW60801.95632.json